User: anonymous   Login
Location: Deuil
(48.9767°N, 2.3272°E)
Time: 11:29:20
(UTC+00:00)
Language:

Cosmos 1602 Rocket - Orbit

View from above orbital plane
View from above orbital plane
View from above satellite
View from above satellite

Ground track
Ground track

The orbit data is extracted from the following two-line orbital elements,

1 15332U 84105B   22021.71056807  .00000171  00000-0  17835-4 0  9990
2 15332  82.5330  57.9368 0019929 228.4431 265.0881 14.83510214994482
Epoch (UTC): 21 January 2022 17:03:13
Eccentricity: 0.0019929
inclination: 82.5330°
perigee height: 604 km
apogee height: 632 km
right ascension of ascending node: 57.9368°
argument of perigee: 228.4431°
revolutions per day: 14.83510214
mean anomaly at epoch: 265.0881°
orbit number at epoch: 99448

The dashed part of the orbit path shows where the satellite is in the earth's shadow,  

DLR